Flag for Canada Weather past 2 weeks in Mount Pearl, Newfoundland and Labrador, Canada

Now
28 °F

Scattered clouds.


Feels Like: 13 °F
Forecast: 17 / 31 °F
Wind: 26 mph from West

Location: St. John's

Current Time: Jan 26, 2015 at 11:34:44 AM

Latest Report: Jan 26, 2015 at 10:30 AM


Visibility: 15 mi

Pressure: 29.75 "Hg

Humidity: 64%

Dew point: 18 °F

Location of Mount PearlLocation

Historic Weather in Mount Pearl — Graph

°F

Mount Pearl temperature yesterday

Maximum temperature yesterday: 46 °F (at 11:30 AM)
Minimum temperature yesterday: 32 °F (at 1:30 AM)
Average temperature yesterday: 37 °F

Past Weeks' High & Low Weather Summary

 TemperatureHumidityPressure
High46 °F (Jan 25, 11:30 AM)100% (Jan 12, 6:30 PM)30.58 "Hg (Jan 12, 6:30 PM)
Low5 °F (Jan 14, 1:30 AM)62% (Jan 11, 4:30 PM)29.02 "Hg (Jan 25, 11:30 AM)
Average26 °F87%29.92 "Hg
* Reported Jan 11 10:30 AM — Jan 26 10:30 AM, Mount Pearl, Weather by CustomWeather, © 2014

Note: Actual official high and low records may vary slightly from our data, if they occured in-between our weather recording intervals... More about our weather records

Advertising

Mount Pearl weather history for previous 24 hours

 ConditionsComfort  
Time TempWeatherWind HumidityBarometerVisibility
10:30 AM
Jan 26
28 °FScattered clouds.26 mph64%29.75 "Hg15 mi
9:30 AM28 °FPartly sunny.28 mph69%29.71 "Hg15 mi
8:30 AM27 °FScattered clouds.31 mph69%29.67 "Hg15 mi
7:30 AM28 °FScattered clouds.24 mph74%29.62 "Hg15 mi
6:30 AM30 °FPassing clouds.29 mph64%29.57 "Hg15 mi
5:30 AM32 °FPassing clouds.29 mph69%29.53 "Hg15 mi
4:30 AM34 °FPassing clouds.24 mph81%29.48 "Hg15 mi
3:30 AM36 °FSnow flurries. Mostly cloudy.22 mph70%29.46 "Hg15 mi
2:30 AM36 °FSnow flurries. Mostly cloudy.25 mph81%29.47 "Hg15 mi
1:30 AM34 °FPassing clouds.23 mph87%29.44 "Hg15 mi
12:30 AM34 °FPassing clouds.28 mph81%29.44 "Hg15 mi
11:30 PM
Jan 25
34 °FPassing clouds.20 mph75%29.42 "Hg15 mi
10:30 PM34 °FOvercast.22 mph81%29.40 "Hg15 mi
9:30 PM34 °FSnow flurries. Overcast.22 mph87%29.39 "Hg8 mi
8:30 PM34 °FSnow flurries. Overcast.28 mph81%29.36 "Hg15 mi
7:30 PM34 °FSnow flurries. Overcast.20 mph87%29.34 "Hg12 mi
7:19 PM34 °FSnow flurries. Passing clouds.22 mph81%29.33 "Hg15 mi
6:30 PM34 °FOvercast.28 mph81%29.31 "Hg15 mi
5:30 PM34 °FOvercast.23 mph87%29.27 "Hg15 mi
4:30 PM34 °FOvercast.29 mph87%29.24 "Hg15 mi
3:30 PM36 °FOvercast.37 mph81%29.19 "Hg12 mi
2:30 PM36 °FDrizzle. Overcast.32 mph87%29.15 "Hg12 mi
1:30 PM37 °FDrizzle. Overcast.39 mph87%29.10 "Hg12 mi
12:30 PM46 °FLight rain. Overcast.37 mph93%29.04 "Hg12 mi
11:30 AM46 °FRain. Fog.41 mph93%29.02 "Hg5 mi
Weather by CustomWeather, © 2014

See weather overviewHow to use our weather pages